| time (UTC) | temp F | wind direction | speed MPH | gust MPH | rain 1hr in | rain 24hr in | rain mn in | humidity % | barometer mb |
| 20260905231831 | 74 | 350 | 3.0 | 4.0 | 0.00 | 0.00 | 0.00 | 84 | 1015.7 |
| 20260905231331 | 74 | 34 | 5.0 | 5.0 | 0.00 | 0.00 | 0.00 | 84 | 1015.5 |
| 20260905230831 | 74 | 83 | 4.0 | 5.0 | 0.00 | 0.00 | 0.00 | 84 | 1015.5 |
| 20260905230331 | 74 | 79 | 5.0 | 5.0 | 0.00 | 0.00 | 0.00 | 84 | 1015.5 |
| 20260905225831 | 75 | 17 | 8.0 | 4.0 | 0.00 | 0.00 | 0.00 | 84 | 1015.3 |
| 20260905225331 | 75 | 11 | 11.0 | 5.0 | 0.00 | 0.00 | 0.00 | 83 | 1015.4 |
| 20260905224831 | 75 | 29 | 6.0 | 6.0 | 0.00 | 0.00 | 0.00 | 82 | 1015.5 |
| 20260905224331 | 76 | 39 | 5.0 | 5.0 | 0.00 | 0.00 | 0.00 | 82 | 1015.6 |
| 20260905223831 | 76 | 30 | 14.0 | 4.0 | 0.00 | 0.00 | 0.00 | 82 | 1015.6 |
| 20260905223331 | 77 | 1 | 3.0 | 5.0 | 0.00 | 0.00 | 0.00 | 81 | 1015.5 |
| 20260905222831 | 77 | 30 | 4.0 | 5.0 | 0.00 | 0.00 | 0.00 | 81 | 1015.6 |
| 20260905222332 | 77 | 45 | 3.0 | 4.0 | 0.00 | 0.00 | 0.00 | 80 | 1015.4 |
| 20260905221831 | 77 | 360 | 2.0 | 4.0 | 0.00 | 0.00 | 0.00 | 80 | 1015.3 |
| 20260905221331 | 77 | 354 | 3.0 | 4.0 | 0.00 | 0.00 | 0.00 | 80 | 1015.2 |
| 20260905220831 | 77 | 360 | 1.0 | 5.0 | 0.00 | 0.00 | 0.00 | 80 | 1015.2 |
| 20260905220331 | 78 | 1 | 8.0 | 5.0 | 0.00 | 0.00 | 0.00 | 80 | 1015.2 |
| 20260905215831 | 78 | 8 | 5.0 | 5.0 | 0.00 | 0.00 | 0.00 | 79 | 1015.2 |
| 20260905215331 | 78 | 316 | 4.0 | 5.0 | 0.00 | 0.00 | 0.00 | 79 | 1015.1 |
| 20260905214832 | 78 | 351 | 5.0 | 5.0 | 0.00 | 0.00 | 0.00 | 79 | 1015.1 |
| 20260905214331 | 78 | 65 | 9.0 | 5.0 | 0.00 | 0.00 | 0.00 | 79 | 1015.0 |
| 20260905213832 | 79 | 9 | 8.0 | 5.0 | 0.00 | 0.00 | 0.00 | 79 | 1015.0 |
| 20260905213331 | 79 | 56 | 3.0 | 5.0 | 0.00 | 0.00 | 0.00 | 78 | 1014.9 |
| 20260905212831 | 79 | 352 | 5.0 | 5.0 | 0.00 | 0.00 | 0.00 | 78 | 1014.9 |
| 20260905212331 | 79 | 359 | 4.0 | 4.0 | 0.00 | 0.00 | 0.00 | 78 | 1014.9 |
| 20260905211831 | 79 | 31 | 2.0 | 4.0 | 0.00 | 0.00 | 0.00 | 78 | 1014.9 |
| 20260905211331 | 79 | 75 | 6.0 | 5.0 | 0.00 | 0.00 | 0.00 | 78 | 1014.9 |
| 20260905210831 | 79 | 39 | 4.0 | 5.0 | 0.00 | 0.00 | 0.00 | 78 | 1014.9 |
| 20260905210330 | 79 | 74 | 4.0 | 4.0 | 0.00 | 0.00 | 0.00 | 77 | 1015.0 |
| 20260905205831 | 79 | 326 | 5.0 | 5.0 | 0.00 | 0.00 | 0.00 | 78 | 1014.9 |
| 20260905205331 | 79 | 331 | 8.0 | 4.0 | 0.00 | 0.00 | 0.00 | 78 | 1015.0 |
| 20260905204832 | 79 | 360 | 4.0 | 5.0 | 0.00 | 0.00 | 0.00 | 78 | 1015.0 |
| 20260905204330 | 79 | 12 | 3.0 | 5.0 | 0.00 | 0.00 | 0.00 | 78 | 1015.0 |
| 20260905203832 | 79 | 35 | 5.0 | 6.0 | 0.00 | 0.00 | 0.00 | 77 | 1014.9 |
| 20260905203330 | 80 | 67 | 5.0 | 6.0 | 0.00 | 0.00 | 0.00 | 77 | 1015.0 |
| 20260905202831 | 80 | 58 | 6.0 | 6.0 | 0.00 | 0.00 | 0.00 | 77 | 1014.9 |
| 20260905202331 | 79 | 360 | 6.0 | 6.0 | 0.00 | 0.00 | 0.00 | 77 | 1014.9 |
| 20260905201831 | 80 | 3 | 7.0 | 5.0 | 0.00 | 0.00 | 0.00 | 76 | 1015.0 |
| 20260905201332 | 80 | 20 | 4.0 | 5.0 | 0.00 | 0.00 | 0.00 | 76 | 1015.0 |
| 20260905200831 | 80 | 67 | 3.0 | 5.0 | 0.00 | 0.00 | 0.00 | 76 | 1015.0 |
| 20260905200331 | 80 | 2 | 5.0 | 4.0 | 0.00 | 0.00 | 0.00 | 76 | 1015.0 |
| 20260905195831 | 80 | 345 | 5.0 | 5.0 | 0.00 | 0.00 | 0.00 | 76 | 1015.0 |
| 20260905195330 | 80 | 356 | 7.0 | 6.0 | 0.00 | 0.00 | 0.00 | 76 | 1015.1 |
| 20260905194831 | 80 | 96 | 6.0 | 6.0 | 0.00 | 0.00 | 0.00 | 75 | 1015.1 |
| 20260905194330 | 80 | 351 | 6.0 | 5.0 | 0.00 | 0.00 | 0.00 | 75 | 1015.1 |
| 20260905193831 | 80 | 29 | 3.0 | 5.0 | 0.00 | 0.00 | 0.00 | 75 | 1015.1 |
| 20260905193331 | 81 | 11 | 4.0 | 5.0 | 0.00 | 0.00 | 0.00 | 75 | 1015.1 |
| 20260905192831 | 81 | 34 | 4.0 | 6.0 | 0.00 | 0.00 | 0.00 | 76 | 1015.2 |
| 20260905192332 | 81 | 353 | 5.0 | 6.0 | 0.00 | 0.00 | 0.00 | 75 | 1015.3 |
| 20260905191831 | 80 | 1 | 6.0 | 6.0 | 0.00 | 0.00 | 0.00 | 76 | 1015.2 |
| 20260905191332 | 80 | 41 | 3.0 | 7.0 | 0.00 | 0.00 | 0.00 | 76 | 1015.3 |
| 20260905190831 | 80 | 293 | 10.0 | 7.0 | 0.00 | 0.00 | 0.00 | 76 | 1015.2 |
| 20260905190330 | 80 | 342 | 5.0 | 7.0 | 0.00 | 0.00 | 0.00 | 76 | 1015.3 |
| 20260905185831 | 80 | 1 | 5.0 | 5.0 | 0.00 | 0.00 | 0.00 | 76 | 1015.2 |
| 20260905185331 | 80 | 328 | 4.0 | 4.0 | 0.00 | 0.00 | 0.00 | 77 | 1015.3 |
| 20260905184832 | 80 | 65 | 3.0 | 5.0 | 0.00 | 0.00 | 0.00 | 78 | 1015.3 |
| 20260905184331 | 80 | 15 | 5.0 | 6.0 | 0.00 | 0.00 | 0.00 | 78 | 1015.3 |
| 20260905183831 | 80 | 319 | 8.0 | 6.0 | 0.00 | 0.00 | 0.00 | 77 | 1015.4 |
| 20260905183331 | 80 | 321 | 9.0 | 6.0 | 0.00 | 0.00 | 0.00 | 76 | 1015.4 |
| 20260905182831 | 81 | 311 | 6.0 | 4.0 | 0.00 | 0.00 | 0.00 | 76 | 1015.5 |
| 20260905182331 | 81 | 349 | 13.0 | 4.0 | 0.00 | 0.00 | 0.00 | 76 | 1015.4 |
| 20260905181831 | 80 | 53 | 5.0 | 5.0 | 0.00 | 0.00 | 0.00 | 77 | 1015.5 |
| 20260905181330 | 80 | 4 | 5.0 | 4.0 | 0.00 | 0.00 | 0.00 | 77 | 1015.4 |
| 20260905180831 | 80 | 15 | 5.0 | 5.0 | 0.00 | 0.00 | 0.00 | 77 | 1015.4 |
| 20260905180330 | 80 | 84 | 5.0 | 4.0 | 0.00 | 0.00 | 0.00 | 77 | 1015.3 |
| 20260905175831 | 80 | 334 | 11.0 | 4.0 | 0.00 | 0.00 | 0.00 | 77 | 1015.4 |
| 20260905175330 | 80 | 11 | 6.0 | 5.0 | 0.00 | 0.00 | 0.00 | 78 | 1015.2 |
| 20260905174831 | 80 | 119 | 2.0 | 4.0 | 0.00 | 0.00 | 0.00 | 78 | 1015.3 |
| 20260905174330 | 80 | 359 | 8.0 | 5.0 | 0.00 | 0.00 | 0.00 | 78 | 1015.3 |
| 20260905173831 | 79 | 335 | 5.0 | 5.0 | 0.00 | 0.00 | 0.00 | 79 | 1015.3 |
| 20260905173330 | 79 | 360 | 3.0 | 5.0 | 0.00 | 0.00 | 0.00 | 80 | 1015.2 |
| 20260905172831 | 79 | 25 | 2.0 | 5.0 | 0.00 | 0.00 | 0.00 | 80 | 1015.2 |
| 20260905172330 | 78 | 348 | 11.0 | 5.0 | 0.00 | 0.00 | 0.00 | 80 | 1015.3 |
| 20260905171831 | 79 | 57 | 5.0 | 5.0 | 0.00 | 0.00 | 0.00 | 80 | 1015.4 |
| 20260905171330 | 79 | 41 | 4.0 | 5.0 | 0.00 | 0.00 | 0.00 | 80 | 1015.3 |
| 20260905170831 | 79 | 39 | 10.0 | 5.0 | 0.00 | 0.00 | 0.00 | 79 | 1015.3 |
| 20260905170331 | 80 | 57 | 3.0 | 5.0 | 0.00 | 0.00 | 0.00 | 78 | 1015.4 |
| 20260905165831 | 80 | 331 | 10.0 | 5.0 | 0.00 | 0.00 | 0.00 | 78 | 1015.5 |
| 20260905165331 | 80 | 316 | 8.0 | 6.0 | 0.00 | 0.00 | 0.00 | 78 | 1015.4 |
| 20260905164831 | 80 | 12 | 5.0 | 6.0 | 0.00 | 0.00 | 0.00 | 77 | 1015.4 |
| 20260905164331 | 81 | 360 | 7.0 | 5.0 | 0.00 | 0.00 | 0.00 | 76 | 1015.4 |
| 20260905163831 | 81 | 54 | 2.0 | 5.0 | 0.00 | 0.00 | 0.00 | 76 | 1015.3 |
| 20260905163330 | 82 | 68 | 8.0 | 4.0 | 0.00 | 0.00 | 0.00 | 76 | 1015.3 |
| 20260905162831 | 82 | 7 | 3.0 | 4.0 | 0.00 | 0.00 | 0.00 | 75 | 1015.4 |
| 20260905162331 | 82 | 44 | 3.0 | 4.0 | 0.00 | 0.00 | 0.00 | 76 | 1015.4 |
| 20260905161831 | 82 | 328 | 3.0 | 4.0 | 0.00 | 0.00 | 0.00 | 76 | 1015.3 |
| 20260905161330 | 81 | 45 | 3.0 | 4.0 | 0.00 | 0.00 | 0.00 | 77 | 1015.2 |
| 20260905160831 | 81 | 72 | 2.0 | 4.0 | 0.00 | 0.00 | 0.00 | 77 | 1015.3 |
| 20260905160330 | 81 | 44 | 7.0 | 4.0 | 0.00 | 0.00 | 0.00 | 77 | 1015.2 |
| 20260905155831 | 81 | 58 | 3.0 | 4.0 | 0.00 | 0.00 | 0.00 | 76 | 1015.2 |
| 20260905155330 | 81 | 356 | 2.0 | 5.0 | 0.00 | 0.00 | 0.00 | 76 | 1015.1 |
| 20260905154831 | 81 | 359 | 4.0 | 5.0 | 0.00 | 0.00 | 0.00 | 76 | 1015.1 |
| 20260905154330 | 82 | 66 | 5.0 | 5.0 | 0.00 | 0.00 | 0.00 | 76 | 1015.1 |
| 20260905153831 | 82 | 11 | 5.0 | 5.0 | 0.00 | 0.00 | 0.00 | 76 | 1015.0 |
| 20260905153330 | 82 | 58 | 11.0 | 4.0 | 0.00 | 0.00 | 0.00 | 76 | 1014.9 |
| 20260905152831 | 82 | 72 | 3.0 | 4.0 | 0.00 | 0.00 | 0.00 | 76 | 1014.9 |
| 20260905152330 | 82 | 360 | 5.0 | 4.0 | 0.00 | 0.00 | 0.00 | 77 | 1015.0 |
| 20260905151831 | 82 | 37 | 4.0 | 4.0 | 0.00 | 0.00 | 0.00 | 77 | 1014.9 |
| 20260905151331 | 81 | 13 | 4.0 | 4.0 | 0.00 | 0.00 | 0.00 | 77 | 1014.8 |
| 20260905150831 | 81 | 17 | 2.0 | 4.0 | 0.00 | 0.00 | 0.00 | 77 | 1014.8 |
| 20260905150330 | 81 | 359 | 6.0 | 4.0 | 0.00 | 0.00 | 0.00 | 77 | 1014.8 |
| 20260905145831 | 81 | 30 | 2.0 | 4.0 | 0.00 | 0.00 | 0.00 | 77 | 1014.8 |
| 20260905145330 | 81 | 73 | 5.0 | 3.0 | 0.00 | 0.00 | 0.00 | 77 | 1014.8 |
| 20260905144831 | 81 | 356 | 3.0 | 3.0 | 0.00 | 0.00 | 0.00 | 78 | 1014.6 |
| 20260905144331 | 81 | 68 | 4.0 | 3.0 | 0.00 | 0.00 | 0.00 | 79 | 1014.7 |
| 20260905143831 | 80 | 3 | 3.0 | 4.0 | 0.00 | 0.00 | 0.00 | 80 | 1014.6 |
| 20260905143330 | 80 | 0 | 0.0 | 4.0 | 0.00 | 0.00 | 0.00 | 81 | 1014.6 |
| 20260905142830 | 80 | 38 | 2.0 | 3.0 | 0.00 | 0.00 | 0.00 | 82 | 1014.6 |
| 20260905142330 | 79 | 56 | 3.0 | 3.0 | 0.00 | 0.00 | 0.00 | 82 | 1014.5 |
| 20260905141831 | 79 | 359 | 1.0 | 4.0 | 0.00 | 0.00 | 0.00 | 83 | 1014.5 |
| 20260905141330 | 79 | 338 | 4.0 | 4.0 | 0.00 | 0.00 | 0.00 | 84 | 1014.5 |
| 20260905140830 | 79 | 38 | 5.0 | 4.0 | 0.00 | 0.00 | 0.00 | 85 | 1014.4 |
| 20260905140330 | 79 | 30 | 4.0 | 4.0 | 0.00 | 0.00 | 0.00 | 86 | 1014.4 |
| 20260905135831 | 78 | 1 | 3.0 | 3.0 | 0.00 | 0.00 | 0.00 | 87 | 1014.4 |
| 20260905135330 | 78 | 36 | 2.0 | 3.0 | 0.00 | 0.00 | 0.00 | 88 | 1014.5 |
| 20260905134831 | 77 | 56 | 1.0 | 3.0 | 0.00 | 0.00 | 0.00 | 89 | 1014.5 |
| 20260905134330 | 77 | 1 | 4.0 | 3.0 | 0.00 | 0.00 | 0.00 | 90 | 1014.6 |
| 20260905133832 | 77 | 41 | 2.0 | 3.0 | 0.00 | 0.00 | 0.00 | 91 | 1014.6 |
| 20260905133330 | 76 | 0 | 0.0 | 3.0 | 0.00 | 0.00 | 0.00 | 91 | 1014.8 |
| 20260905132831 | 76 | 39 | 1.0 | 3.0 | 0.00 | 0.00 | 0.00 | 91 | 1014.9 |
| 20260905132331 | 76 | 337 | 5.0 | 3.0 | 0.00 | 0.00 | 0.00 | 92 | 1014.6 |
| 20260905131830 | 76 | 37 | 2.0 | 4.0 | 0.00 | 0.00 | 0.00 | 92 | 1014.4 |
| 20260905131330 | 76 | 1 | 2.0 | 3.0 | 0.00 | 0.00 | 0.00 | 92 | 1014.4 |
| 20260905130830 | 75 | 12 | 2.0 | 3.0 | 0.00 | 0.00 | 0.00 | 92 | 1014.4 |
| 20260905130330 | 75 | 58 | 5.0 | 3.0 | 0.00 | 0.00 | 0.00 | 92 | 1014.3 |
| 20260905125831 | 75 | 12 | 1.0 | 3.0 | 0.00 | 0.00 | 0.00 | 93 | 1014.2 |
| 20260905125330 | 75 | 1 | 5.0 | 3.0 | 0.00 | 0.00 | 0.00 | 92 | 1014.1 |
| 20260905124831 | 75 | 309 | 4.0 | 2.0 | 0.00 | 0.00 | 0.00 | 92 | 1014.0 |
| 20260905124330 | 75 | 68 | 1.0 | 2.0 | 0.00 | 0.00 | 0.00 | 92 | 1014.0 |
| 20260905123830 | 75 | 339 | 2.0 | 3.0 | 0.00 | 0.00 | 0.00 | 92 | 1014.0 |
| 20260905123330 | 74 | 319 | 3.0 | 3.0 | 0.00 | 0.00 | 0.00 | 92 | 1013.8 |
| 20260905122832 | 74 | 358 | 3.0 | 2.0 | 0.00 | 0.00 | 0.00 | 92 | 1013.7 |
| 20260905122330 | 74 | 318 | 2.0 | 2.0 | 0.00 | 0.00 | 0.00 | 92 | 1013.7 |
| 20260905121830 | 74 | 311 | 2.0 | 2.0 | 0.00 | 0.00 | 0.00 | 92 | 1013.7 |
| 20260905121330 | 74 | 316 | 4.0 | 3.0 | 0.00 | 0.00 | 0.00 | 92 | 1013.6 |
| 20260905120831 | 74 | 352 | 1.0 | 2.0 | 0.00 | 0.00 | 0.00 | 92 | 1013.7 |
| 20260905120330 | 74 | 360 | 2.0 | 2.0 | 0.00 | 0.00 | 0.00 | 92 | 1013.5 |
| 20260905115831 | 74 | 311 | 2.0 | 2.0 | 0.00 | 0.00 | 0.00 | 91 | 1013.3 |
| 20260905115330 | 74 | 339 | 2.0 | 2.0 | 0.00 | 0.00 | 0.00 | 91 | 1013.2 |
| 20260905114831 | 74 | 44 | 3.0 | 2.0 | 0.00 | 0.00 | 0.00 | 91 | 1013.2 |
| 20260905114330 | 74 | 65 | 1.0 | 2.0 | 0.00 | 0.00 | 0.00 | 91 | 1013.1 |
| 20260905113832 | 74 | 1 | 2.0 | 3.0 | 0.00 | 0.00 | 0.00 | 91 | 1013.0 |
| 20260905113331 | 75 | 39 | 2.0 | 3.0 | 0.00 | 0.00 | 0.00 | 90 | 1012.9 |
| 20260905112831 | 75 | 359 | 4.0 | 3.0 | 0.00 | 0.00 | 0.00 | 90 | 1012.8 |
| 20260905112331 | 75 | 74 | 4.0 | 2.0 | 0.00 | 0.00 | 0.00 | 90 | 1012.8 |
| 20260905111830 | 75 | 25 | 1.0 | 2.0 | 0.00 | 0.00 | 0.00 | 90 | 1012.7 |
| 20260905111330 | 75 | 342 | 2.0 | 2.0 | 0.00 | 0.00 | 0.00 | 90 | 1012.7 |
| 20260905110830 | 75 | 359 | 3.0 | 1.0 | 0.00 | 0.00 | 0.00 | 89 | 1012.6 |
| 20260905110330 | 75 | 347 | 2.0 | 1.0 | 0.00 | 0.00 | 0.00 | 89 | 1012.5 |
| 20260905105830 | 75 | 27 | 1.0 | 1.0 | 0.00 | 0.00 | 0.00 | 89 | 1012.6 |
| 20260905105331 | 75 | 36 | 2.0 | 1.0 | 0.00 | 0.00 | 0.00 | 89 | 1012.7 |
| 20260905104830 | 76 | 83 | 2.0 | 2.0 | 0.00 | 0.00 | 0.00 | 89 | 1012.7 |
| 20260905104330 | 76 | 49 | 1.0 | 2.0 | 0.00 | 0.00 | 0.00 | 89 | 1012.7 |
| 20260905103830 | 76 | 66 | 2.0 | 2.0 | 0.00 | 0.00 | 0.00 | 88 | 1012.7 |
| 20260905103330 | 76 | 5 | 2.0 | 2.0 | 0.00 | 0.00 | 0.00 | 88 | 1012.8 |
| 20260905102831 | 76 | 10 | 2.0 | 2.0 | 0.00 | 0.00 | 0.00 | 88 | 1012.9 |
| 20260905102330 | 76 | 336 | 4.0 | 2.0 | 0.00 | 0.00 | 0.00 | 88 | 1012.8 |
| 20260905101831 | 77 | 348 | 4.0 | 2.0 | 0.00 | 0.00 | 0.00 | 88 | 1012.8 |
| 20260905101330 | 77 | 341 | 4.0 | 2.0 | 0.00 | 0.00 | 0.00 | 87 | 1012.8 |
| 20260905100830 | 77 | 344 | 3.0 | 2.0 | 0.00 | 0.00 | 0.00 | 87 | 1012.7 |
| 20260905100330 | 77 | 0 | 0.0 | 3.0 | 0.00 | 0.00 | 0.00 | 87 | 1012.6 |
| 20260905095830 | 77 | 24 | 1.0 | 3.0 | 0.00 | 0.00 | 0.00 | 87 | 1012.6 |
| 20260905095331 | 78 | 326 | 5.0 | 2.0 | 0.00 | 0.00 | 0.00 | 87 | 1012.6 |
| 20260905094831 | 78 | 70 | 2.0 | 2.0 | 0.00 | 0.00 | 0.00 | 87 | 1012.7 |
| 20260905094331 | 78 | 355 | 3.0 | 1.0 | 0.00 | 0.00 | 0.00 | 87 | 1012.6 |
| 20260905093832 | 78 | 53 | 2.0 | 1.0 | 0.00 | 0.00 | 0.00 | 87 | 1012.6 |
| 20260905093331 | 78 | 64 | 4.0 | 1.0 | 0.00 | 0.00 | 0.00 | 87 | 1012.5 |
| 20260905092832 | 78 | 357 | 1.0 | 0.0 | 0.00 | 0.00 | 0.00 | 87 | 1012.4 |
| 20260905092331 | 78 | 357 | 1.0 | 0.0 | 0.00 | 0.00 | 0.00 | 87 | 1012.3 |
| 20260905091832 | 78 | 0 | 0.0 | 0.0 | 0.00 | 0.00 | 0.00 | 87 | 1012.2 |
| 20260905091331 | 78 | 0 | 0.0 | 0.0 | 0.00 | 0.00 | 0.00 | 87 | 1012.1 |
| 20260905090831 | 78 | 0 | 0.0 | 0.0 | 0.00 | 0.00 | 0.00 | 87 | 1012.2 |
| 20260905090331 | 79 | 0 | 0.0 | 0.0 | 0.00 | 0.00 | 0.00 | 87 | 1012.3 |
| 20260905085832 | 79 | 0 | 0.0 | 1.0 | 0.00 | 0.00 | 0.00 | 87 | 1012.4 |
| 20260905085331 | 79 | 0 | 0.0 | 1.0 | 0.00 | 0.00 | 0.00 | 87 | 1012.4 |
| 20260905084832 | 79 | 0 | 0.0 | 1.0 | 0.00 | 0.00 | 0.00 | 87 | 1012.3 |
| 20260905084331 | 79 | 354 | 1.0 | 1.0 | 0.00 | 0.00 | 0.00 | 87 | 1012.4 |
| 20260905083831 | 79 | 0 | 0.0 | 0.0 | 0.00 | 0.00 | 0.00 | 87 | 1012.3 |
| 20260905083331 | 79 | 0 | 0.0 | 1.0 | 0.00 | 0.00 | 0.00 | 86 | 1012.3 |
| 20260905082831 | 79 | 0 | 0.0 | 1.0 | 0.00 | 0.00 | 0.00 | 86 | 1012.2 |
| 20260905082331 | 79 | 336 | 3.0 | 0.0 | 0.00 | 0.00 | 0.00 | 86 | 1012.3 |
| 20260905081831 | 79 | 0 | 0.0 | 0.0 | 0.00 | 0.00 | 0.00 | 86 | 1012.1 |
| 20260905081331 | 79 | 0 | 0.0 | 0.0 | 0.00 | 0.00 | 0.00 | 86 | 1012.0 |
| 20260905080832 | 79 | 0 | 0.0 | 0.0 | 0.00 | 0.00 | 0.00 | 86 | 1012.0 |
| 20260905080330 | 79 | 0 | 0.0 | 1.0 | 0.00 | 0.00 | 0.00 | 86 | 1012.1 |
| 20260905075831 | 79 | 336 | 1.0 | 0.0 | 0.00 | 0.00 | 0.00 | 86 | 1012.2 |
| 20260905075331 | 79 | 336 | 2.0 | 0.0 | 0.00 | 0.00 | 0.00 | 86 | 1012.3 |
| 20260905074831 | 80 | 0 | 0.0 | 1.0 | 0.00 | 0.00 | 0.00 | 85 | 1012.3 |
| 20260905074330 | 80 | 328 | 1.0 | 1.0 | 0.00 | 0.00 | 0.00 | 85 | 1012.2 |
| 20260905073832 | 80 | 328 | 1.0 | 2.0 | 0.00 | 0.00 | 0.00 | 85 | 1012.2 |
| 20260905073331 | 80 | 351 | 2.0 | 1.0 | 0.00 | 0.00 | 0.00 | 85 | 1012.2 |
| 20260905072831 | 80 | 352 | 2.0 | 1.0 | 0.00 | 0.00 | 0.00 | 84 | 1012.2 |
| 20260905072331 | 80 | 307 | 2.0 | 0.0 | 0.00 | 0.00 | 0.00 | 84 | 1012.1 |
| 20260905071831 | 80 | 307 | 1.0 | 0.0 | 0.00 | 0.00 | 0.00 | 84 | 1012.2 |
| 20260905071331 | 80 | 0 | 0.0 | 0.0 | 0.00 | 0.00 | 0.00 | 84 | 1012.2 |
| 20260905070831 | 80 | 307 | 1.0 | 0.0 | 0.00 | 0.00 | 0.00 | 83 | 1012.1 |
| 20260905070331 | 80 | 15 | 1.0 | 0.0 | 0.00 | 0.00 | 0.00 | 83 | 1012.1 |
| 20260905065331 | 80 | 0 | 0.0 | 0.0 | 0.00 | 0.00 | 0.00 | 83 | 1012.2 |
| 20260905064831 | 80 | 0 | 0.0 | 0.0 | 0.00 | 0.00 | 0.00 | 82 | 1012.2 |
| 20260905064331 | 81 | 15 | 1.0 | 0.0 | 0.00 | 0.00 | 0.00 | 82 | 1012.3 |
| 20260905063832 | 81 | 0 | 0.0 | 0.0 | 0.00 | 0.00 | 0.00 | 82 | 1012.3 |
| 20260905063331 | 81 | 0 | 0.0 | 0.0 | 0.00 | 0.00 | 0.00 | 82 | 1012.5 |
| 20260905062831 | 81 | 0 | 0.0 | 0.0 | 0.00 | 0.00 | 0.00 | 82 | 1012.4 |
| 20260905062331 | 81 | 0 | 0.0 | 0.0 | 0.00 | 0.00 | 0.00 | 82 | 1012.4 |
| 20260905061831 | 81 | 0 | 0.0 | 0.0 | 0.00 | 0.00 | 0.00 | 82 | 1012.4 |
| 20260905061331 | 81 | 0 | 0.0 | 0.0 | 0.00 | 0.00 | 0.00 | 82 | 1012.7 |
| 20260905060831 | 81 | 15 | 2.0 | 0.0 | 0.00 | 0.00 | 0.00 | 82 | 1012.7 |
| 20260905060331 | 81 | 0 | 0.0 | 0.0 | 0.00 | 0.00 | 0.00 | 82 | 1012.7 |
| 20260905055831 | 81 | 0 | 0.0 | 1.0 | 0.00 | 0.00 | 0.00 | 82 | 1012.8 |
| 20260905055331 | 81 | 15 | 1.0 | 1.0 | 0.00 | 0.00 | 0.00 | 82 | 1012.8 |
| 20260905054831 | 81 | 0 | 0.0 | 1.0 | 0.00 | 0.00 | 0.00 | 82 | 1012.8 |
| 20260905054331 | 81 | 0 | 0.0 | 1.0 | 0.00 | 0.00 | 0.00 | 82 | 1012.7 |
| 20260905053831 | 81 | 0 | 0.0 | 1.0 | 0.00 | 0.00 | 0.00 | 82 | 1012.8 |
| 20260905053331 | 81 | 0 | 0.0 | 0.0 | 0.00 | 0.00 | 0.00 | 82 | 1012.8 |
| 20260905052832 | 81 | 0 | 0.0 | 0.0 | 0.00 | 0.00 | 0.00 | 82 | 1012.7 |
| 20260905052330 | 81 | 0 | 0.0 | 0.0 | 0.00 | 0.00 | 0.00 | 82 | 1012.7 |
| 20260905051832 | 81 | 0 | 0.0 | 0.0 | 0.00 | 0.00 | 0.00 | 82 | 1012.7 |
| 20260905051331 | 81 | 0 | 0.0 | 0.0 | 0.00 | 0.00 | 0.00 | 82 | 1012.6 |
| 20260905050831 | 81 | 0 | 0.0 | 0.0 | 0.00 | 0.00 | 0.00 | 82 | 1012.5 |
| 20260905050331 | 81 | 335 | 2.0 | 0.0 | 0.00 | 0.00 | 0.00 | 82 | 1012.6 |
| 20260905045831 | 81 | 0 | 0.0 | 0.0 | 0.00 | 0.00 | 0.00 | 82 | 1012.6 |
| 20260905045330 | 81 | 0 | 0.0 | 0.0 | 0.00 | 0.00 | 0.00 | 82 | 1012.6 |
| 20260905044831 | 81 | 0 | 0.0 | 1.0 | 0.00 | 0.00 | 0.00 | 82 | 1012.7 |
| 20260905044331 | 81 | 0 | 0.0 | 1.0 | 0.00 | 0.00 | 0.00 | 82 | 1012.4 |
| 20260905043831 | 81 | 58 | 3.0 | 0.0 | 0.00 | 0.00 | 0.00 | 82 | 1012.4 |
| 20260905043330 | 81 | 0 | 0.0 | 0.0 | 0.00 | 0.00 | 0.00 | 81 | 1012.6 |
| 20260905042831 | 81 | 0 | 0.0 | 1.0 | 0.00 | 0.00 | 0.00 | 81 | 1012.8 |
| 20260905042330 | 81 | 79 | 1.0 | 1.0 | 0.00 | 0.00 | 0.00 | 81 | 1012.7 |
| 20260905041831 | 81 | 61 | 1.0 | 1.0 | 0.00 | 0.00 | 0.00 | 81 | 1013.0 |
| 20260905041331 | 81 | 71 | 2.0 | 1.0 | 0.00 | 0.00 | 0.00 | 81 | 1013.0 |
| 20260905040831 | 82 | 0 | 0.0 | 2.0 | 0.00 | 0.00 | 0.00 | 80 | 1013.2 |
| 20260905040330 | 82 | 0 | 0.0 | 3.0 | 0.00 | 0.00 | 0.00 | 80 | 1013.2 |
| 20260905035831 | 82 | 351 | 5.0 | 4.0 | 0.00 | 0.00 | 0.00 | 80 | 1013.3 |
| 20260905035332 | 82 | 63 | 5.0 | 3.0 | 0.00 | 0.00 | 0.00 | 79 | 1013.1 |
| 20260905034831 | 82 | 5 | 7.0 | 2.0 | 0.00 | 0.00 | 0.00 | 79 | 1013.0 |
| 20260905034332 | 82 | 0 | 0.0 | 2.0 | 0.00 | 0.00 | 0.00 | 78 | 1012.7 |
| 20260905033831 | 82 | 310 | 4.0 | 0.0 | 0.00 | 0.00 | 0.00 | 78 | 1012.7 |
| 20260905033331 | 82 | 0 | 0.0 | 0.0 | 0.00 | 0.00 | 0.00 | 78 | 1012.6 |
| 20260905032831 | 82 | 354 | 2.0 | 0.0 | 0.00 | 0.00 | 0.00 | 78 | 1012.9 |
| 20260905032331 | 82 | 0 | 0.0 | 0.0 | 0.00 | 0.00 | 0.00 | 78 | 1012.9 |
| 20260905031831 | 82 | 0 | 0.0 | 0.0 | 0.00 | 0.00 | 0.00 | 77 | 1013.0 |
| 20260905031330 | 83 | 0 | 0.0 | 0.0 | 0.00 | 0.00 | 0.00 | 77 | 1013.1 |
| 20260905030831 | 83 | 0 | 0.0 | 1.0 | 0.00 | 0.00 | 0.00 | 77 | 1013.0 |
| 20260905030330 | 83 | 0 | 0.0 | 2.0 | 0.00 | 0.00 | 0.00 | 77 | 1013.1 |
| 20260905025832 | 83 | 46 | 2.0 | 2.0 | 0.00 | 0.00 | 0.00 | 77 | 1013.3 |
| 20260905025331 | 83 | 78 | 1.0 | 1.0 | 0.00 | 0.00 | 0.00 | 77 | 1013.5 |
| 20260905024831 | 83 | 0 | 0.0 | 1.0 | 0.00 | 0.00 | 0.00 | 76 | 1013.4 |
| 20260905024330 | 83 | 57 | 3.0 | 1.0 | 0.00 | 0.00 | 0.00 | 76 | 1013.3 |
| 20260905023831 | 84 | 342 | 1.0 | 1.0 | 0.00 | 0.00 | 0.00 | 75 | 1013.4 |
| 20260905023330 | 84 | 85 | 1.0 | 3.0 | 0.00 | 0.00 | 0.00 | 75 | 1013.4 |
| 20260905022831 | 84 | 15 | 1.0 | 3.0 | 0.00 | 0.00 | 0.00 | 74 | 1013.3 |
| 20260905022331 | 84 | 67 | 4.0 | 2.0 | 0.00 | 0.00 | 0.00 | 73 | 1013.4 |
| 20260905021832 | 85 | 50 | 2.0 | 2.0 | 0.00 | 0.00 | 0.00 | 72 | 1013.4 |
| 20260905021330 | 85 | 359 | 2.0 | 2.0 | 0.00 | 0.00 | 0.00 | 72 | 1013.4 |
| 20260905020831 | 86 | 28 | 2.0 | 2.0 | 0.00 | 0.00 | 0.00 | 71 | 1013.3 |
| 20260905020330 | 86 | 70 | 2.0 | 2.0 | 0.00 | 0.00 | 0.00 | 70 | 1013.3 |
| 20260905015831 | 87 | 26 | 2.0 | 2.0 | 0.00 | 0.00 | 0.00 | 69 | 1013.3 |
| 20260905015331 | 87 | 74 | 3.0 | 3.0 | 0.00 | 0.00 | 0.00 | 69 | 1013.2 |
| 20260905014831 | 87 | 21 | 1.0 | 4.0 | 0.00 | 0.00 | 0.00 | 68 | 1013.3 |
| 20260905014330 | 88 | 342 | 3.0 | 3.0 | 0.00 | 0.00 | 0.00 | 67 | 1013.3 |
| 20260905013831 | 89 | 96 | 4.0 | 1.0 | 0.00 | 0.00 | 0.00 | 67 | 1013.1 |
| 20260905013331 | 89 | 0 | 0.0 | 0.0 | 0.00 | 0.00 | 0.00 | 68 | 1012.9 |
| 20260905012831 | 89 | 0 | 0.0 | 0.0 | 0.00 | 0.00 | 0.00 | 68 | 1012.7 |
| 20260905012330 | 89 | 0 | 0.0 | 0.0 | 0.00 | 0.00 | 0.00 | 68 | 1012.5 |
| 20260905011831 | 89 | 0 | 0.0 | 0.0 | 0.00 | 0.00 | 0.00 | 68 | 1012.3 |
| 20260905011330 | 89 | 0 | 0.0 | 0.0 | 0.00 | 0.00 | 0.00 | 68 | 1012.3 |
| 20260905010831 | 90 | 0 | 0.0 | 1.0 | 0.00 | 0.00 | 0.00 | 67 | 1012.2 |
| 20260905010331 | 90 | 218 | 3.0 | 1.0 | 0.00 | 0.00 | 0.00 | 67 | 1012.1 |
| 20260905005831 | 90 | 0 | 0.0 | 0.0 | 0.00 | 0.00 | 0.00 | 67 | 1012.2 |
| 20260905005331 | 90 | 0 | 0.0 | 1.0 | 0.00 | 0.00 | 0.00 | 67 | 1012.1 |
| 20260905004831 | 90 | 0 | 0.0 | 2.0 | 0.00 | 0.00 | 0.00 | 66 | 1011.9 |
| 20260905004330 | 90 | 0 | 0.0 | 3.0 | 0.00 | 0.00 | 0.00 | 66 | 1012.0 |
| 20260905003830 | 90 | 223 | 4.0 | 3.0 | 0.00 | 0.00 | 0.00 | 66 | 1012.0 |
| 20260905003330 | 90 | 199 | 3.0 | 2.0 | 0.00 | 0.00 | 0.00 | 66 | 1011.9 |
| 20260905002831 | 90 | 218 | 2.0 | 2.0 | 0.00 | 0.00 | 0.00 | 65 | 1011.9 |
| 20260905002330 | 90 | 205 | 2.0 | 3.0 | 0.00 | 0.00 | 0.00 | 65 | 1011.8 |
| 20260905001831 | 91 | 210 | 5.0 | 3.0 | 0.00 | 0.00 | 0.00 | 65 | 1011.8 |
| 20260905001331 | 91 | 224 | 3.0 | 2.0 | 0.00 | 0.00 | 0.00 | 64 | 1011.9 |
| 20260905000831 | 91 | 210 | 2.0 | 2.0 | 0.00 | 0.00 | 0.00 | 64 | 1011.8 |
| 20260905000332 | 91 | 217 | 2.0 | 3.0 | 0.00 | 0.00 | 0.00 | 64 | 1011.8 |
| 20260904235831 | 91 | 214 | 5.0 | 3.0 | 0.00 | 0.00 | 0.00 | 63 | 1011.8 |
| 20260904235330 | 92 | 213 | 4.0 | 4.0 | 0.00 | 0.00 | 0.00 | 63 | 1011.6 |
| 20260904234831 | 92 | 214 | 3.0 | 4.0 | 0.00 | 0.00 | 0.00 | 62 | 1011.6 |
| 20260904234330 | 92 | 238 | 4.0 | 4.0 | 0.00 | 0.00 | 0.00 | 62 | 1011.6 |
| 20260904233831 | 92 | 207 | 4.0 | 4.0 | 0.00 | 0.00 | 0.00 | 61 | 1011.6 |
| 20260904233330 | 93 | 224 | 7.0 | 3.0 | 0.00 | 0.00 | 0.00 | 60 | 1011.5 |
| 20260904232831 | 93 | 173 | 2.0 | 4.0 | 0.00 | 0.00 | 0.00 | 60 | 1011.7 |
| 20260904232331 | 93 | 226 | 4.0 | 3.0 | 0.00 | 0.00 | 0.00 | 60 | 1011.7 |